Flag for South Korea Weather past 2 weeks in Daegu, South Korea

Now
75 °F

Strong thunderstorms. Fog.


Feels Like: 75 °F
Forecast: 77 / 86 °F
Wind: 13 mph from Northeast

Location: Taegu Ab

Current Time: Jul 31, 2014 at 6:48:50 PM

Latest Report: Jul 31, 2014 at 6:00 PM


Visibility: 3 mi

Pressure: 29.80 "Hg

Humidity: 89%

Dew point: 72 °F

Location of DaeguLocation

Historic Weather in Daegu — Graph

°F

Daegu temperature yesterday

Maximum temperature yesterday: 97 °F (at 4:00 PM)
Minimum temperature yesterday: 73 °F (at 5:00 AM)
Average temperature yesterday: 85 °F

Past Weeks' High & Low Weather Summary

 TemperatureHumidityPressure
High99 °F (Jul 31, 4:00 PM)100% (Jul 25, 4:00 AM)29.92 "Hg (Jul 25, 4:00 AM)
Low66 °F (Jul 27, 5:00 AM)36% (Jul 27, 3:00 PM)29.62 "Hg (Jul 23, 6:00 PM)
Average82 °F70%29.79 "Hg
* Reported Jul 16 5:00 PM — Jul 31 5:02 PM, Daegu, Weather by CustomWeather, © 2014

Note: Actual official high and low records may vary slightly from our data, if they occured in-between our weather recording intervals... More about our weather records

Advertising

Daegu weather history for previous 24 hours

 ConditionsComfort  
Time TempWeatherWind HumidityBarometerVisibility
5:02 PM
Jul 31
82 °FThunderstorms. Partly sunny.28 mph70%29.80 "HgN/A
5:00 PM90 °FPartly sunny.28 mph52%29.77 "HgN/A
4:00 PM99 °FPartly sunny.5 mph42%29.74 "HgN/A
3:00 PM97 °FScattered clouds.5 mph42%29.74 "HgN/A
2:00 PM95 °FPartly sunny.8 mph47%29.77 "HgN/A
1:00 PM93 °FPartly sunny.6 mph53%29.80 "HgN/A
12:00 PM90 °FPartly sunny.8 mph63%29.80 "HgN/A
11:45 AM90 °FPartly sunny.8 mph63%29.80 "HgN/A
11:00 AM93 °FBroken clouds.2 mph53%29.83 "HgN/A
10:00 AM90 °FBroken clouds.5 mph59%29.83 "HgN/A
9:00 AM86 °FPassing clouds.1 mph66%29.83 "HgN/A
8:00 AM82 °FPassing clouds.1 mph74%29.86 "HgN/A
7:00 AM79 °FPassing clouds.1 mph84%29.86 "HgN/A
6:00 AM77 °FPassing clouds.2 mph83%29.83 "HgN/A
5:00 AM77 °FPassing clouds.3 mph83%29.83 "HgN/A
4:00 AM79 °FPassing clouds.2 mph79%29.84 "HgN/A
3:00 AM79 °FPassing clouds.3 mph79%29.85 "HgN/A
2:00 AM79 °FPassing clouds.3 mph79%29.83 "HgN/A
1:00 AM81 °FPassing clouds.1 mph74%29.83 "HgN/A
12:00 AM82 °FPassing clouds.3 mph70%29.83 "HgN/A
11:00 PM
Jul 30
82 °FClear.3 mph70%29.83 "Hg10 mi
10:00 PM86 °FClear.5 mph62%29.83 "Hg10 mi
9:00 PM88 °FClear.2 mph59%29.83 "Hg10 mi
8:00 PM90 °FClear.3 mph55%29.80 "Hg10 mi
7:00 PM91 °FSunny.7 mph52%29.77 "Hg10 mi
6:00 PM93 °FSunny.6 mph49%29.77 "Hg10 mi
Weather by CustomWeather, © 2014

See weather overviewHow to use our weather pages